contact:dominique.lefevre@mio.osupytheas.fr, maurice.libes@osupytheas.fr, didier.mallarino@osupytheas.fr
Project:EMSO http://www.emso-fr.org/EMSO-France
Depth: 2436.0 m
Title:EMSO Ligure Ouest : Data MII capteur AQUADOPP
Date,Latitude,Longitude,X_East,Y_North,Z_Up,Amplitude_X,Amplitude_Y,Amplitude_Z,Batterie,SoundSpeed,Heading,Pitch,Roll,Pressure,TIS,Speed,Direction
, degrees North, degrees East, m.s-1, m.s-1,m.s-1, 1, 1, 1, Volt, m.s-1, degree, degree, degree, dbar, degree_C, m.s-1, degree
2019-11-06T07:19:35,42.805,6.029,-0.018,-0.011,-0.033,101.0,104.0,100.0,13.4,1505.1,324.7,-0.8,1.9,2470.532,13.27,0.021,238.6
2019-11-06T07:22:38,42.805,6.029,-0.004,-0.003,-0.035,102.0,105.0,98.0,13.4,1505.2,326.0,-0.7,1.8,2470.401,13.29,0.005,233.1
2019-11-06T07:25:41,42.805,6.029,0.015,-0.004,-0.059,103.0,103.0,100.0,13.4,1505.2,325.0,-0.7,1.8,2470.285,13.3,0.015,104.9
2019-11-06T07:28:44,42.805,6.029,0.003,-0.013,-0.017,102.0,104.0,98.0,13.4,1505.3,327.3,-0.7,1.8,2470.197,13.31,0.013,167.0
2019-11-06T07:31:47,42.805,6.029,-0.04,-0.021,-0.078,102.0,104.0,99.0,13.4,1505.3,323.7,-0.7,1.8,2470.098,13.32,0.045,242.3
2019-11-06T07:34:50,42.805,6.029,-0.016,-0.022,-0.083,100.0,106.0,99.0,13.4,1505.3,324.0,-0.7,1.8,2470.069,13.32,0.027,216.0
2019-11-06T07:37:53,42.805,6.029,-0.009,0.0,-0.067,102.0,103.0,98.0,13.4,1505.3,323.7,-0.7,1.8,2470.006,13.32,0.009,270.0
2019-11-06T07:40:56,42.805,6.029,-0.033,0.001,-0.063,101.0,103.0,99.0,13.3,1505.3,325.1,-0.7,1.8,2469.999,13.32,0.033,271.7
2019-11-06T07:43:59,42.805,6.029,-0.004,-0.004,-0.059,101.0,102.0,100.0,13.4,1505.3,325.4,-0.7,1.9,2469.961,13.32,0.005,225.0
2019-11-06T07:47:02,42.805,6.029,-0.026,-0.001,-0.05,100.0,105.0,98.0,13.3,1505.3,324.7,-0.7,1.8,2469.909,13.33,0.026,267.8
2019-11-06T07:50:05,42.805,6.029,0.017,-0.01,-0.022,100.0,105.0,99.0,13.4,1505.3,324.2,-0.7,1.8,2469.946,13.33,0.019,120.5
2019-11-06T07:53:08,42.805,6.029,0.017,-0.021,-0.012,102.0,103.0,98.0,13.4,1505.3,325.5,-0.7,1.9,2469.907,13.33,0.027,141.0
2019-11-06T07:56:11,42.805,6.029,0.013,0.021,-0.036,101.0,107.0,98.0,13.4,1505.3,323.1,-0.7,1.8,2469.884,13.33,0.024,31.8
2019-11-06T07:59:14,42.805,6.029,0.035,0.013,0.013,101.0,105.0,98.0,13.3,1505.3,326.5,-0.7,1.8,2469.926,13.33,0.037,69.6
2019-11-06T08:02:17,42.805,6.029,0.017,0.008,0.004,100.0,106.0,99.0,13.4,1505.3,325.8,-0.7,1.8,2469.912,13.33,0.018,64.8
2019-11-06T08:05:20,42.805,6.029,0.014,0.0,-0.011,103.0,103.0,99.0,13.3,1505.3,323.5,-0.7,1.8,2469.894,13.33,0.014,90.0
2019-11-06T08:08:23,42.805,6.029,0.037,0.021,0.008,100.0,103.0,98.0,13.4,1505.3,323.9,-0.7,1.8,2469.892,13.33,0.042,60.4
2019-11-06T08:11:26,42.805,6.029,0.048,0.0,0.018,101.0,105.0,99.0,13.4,1505.3,324.8,-0.7,1.8,2469.903,13.33,0.048,90.0
2019-11-06T08:14:29,42.805,6.029,0.045,-0.008,-0.018,100.0,103.0,97.0,13.3,1505.3,325.4,-0.7,1.9,2469.915,13.33,0.045,100.1
2019-11-06T08:17:32,42.805,6.029,0.019,-0.023,-0.031,102.0,103.0,98.0,13.4,1505.3,327.4,-0.7,1.8,2469.884,13.33,0.029,140.4
2019-11-06T08:20:35,42.805,6.029,0.028,0.006,-0.011,101.0,102.0,99.0,13.4,1505.3,323.3,-0.7,1.8,2469.91,13.33,0.028,77.9
2019-11-06T08:23:38,42.805,6.029,0.0,0.011,-0.003,100.0,101.0,99.0,13.3,1505.3,323.5,-0.7,1.8,2469.89,13.33,0.011,0.0
2019-11-06T08:26:41,42.805,6.029,0.065,-0.005,-0.008,100.0,104.0,98.0,13.4,1505.3,325.5,-0.7,1.8,2469.912,13.33,0.065,94.4
2019-11-06T08:29:44,42.805,6.029,0.052,-0.004,0.071,101.0,102.0,100.0,13.4,1505.3,325.8,-0.7,1.8,2469.937,13.33,0.052,94.4
2019-11-06T08:32:47,42.805,6.029,0.028,0.01,0.034,100.0,104.0,98.0,13.3,1505.3,325.0,-0.8,1.9,2469.973,13.33,0.029,70.4
2019-11-06T08:35:50,42.805,6.029,0.026,-0.001,0.03,100.0,103.0,98.0,13.4,1505.3,328.4,-0.7,1.8,2469.875,13.33,0.026,92.2
2019-11-06T08:38:53,42.805,6.029,0.022,0.002,-0.011,101.0,106.0,101.0,13.4,1505.3,324.9,-0.7,1.9,2469.936,13.33,0.022,84.8
2019-11-06T08:41:56,42.805,6.029,0.021,-0.017,-0.007,100.0,104.0,98.0,13.3,1505.3,323.9,-0.7,1.8,2469.933,13.33,0.027,129.0
2019-11-06T08:44:59,42.805,6.029,0.036,-0.011,0.022,101.0,104.0,99.0,13.4,1505.4,328.5,-0.7,1.8,2469.917,13.34,0.037,107.0
2019-11-06T08:48:02,42.805,6.029,0.023,0.004,-0.029,101.0,105.0,97.0,13.4,1505.4,326.0,-0.7,1.8,2469.921,13.34,0.023,80.1
2019-11-06T08:51:05,42.805,6.029,-0.007,0.006,-0.013,100.0,105.0,99.0,13.4,1505.4,325.9,-0.7,1.8,2469.958,13.34,0.009,310.6
2019-11-06T08:54:08,42.805,6.029,0.051,0.01,-0.001,101.0,106.0,99.0,13.3,1505.4,324.6,-0.7,1.8,2469.933,13.34,0.051,78.9
2019-11-06T08:57:11,42.805,6.029,0.031,0.005,0.031,100.0,106.0,101.0,13.4,1505.4,326.9,-0.7,1.8,2469.978,13.34,0.031,80.8
2019-11-06T09:00:14,42.805,6.029,0.06,0.019,0.033,101.0,104.0,99.0,13.4,1505.4,327.4,-0.7,1.8,2469.957,13.34,0.062,72.4
2019-11-06T09:03:17,42.805,6.029,0.075,0.013,0.055,100.0,104.0,98.0,13.3,1505.4,325.0,-0.7,1.8,2469.934,13.34,0.076,80.2
2019-11-06T09:06:20,42.805,6.029,0.101,-0.001,0.089,99.0,103.0,99.0,13.3,1505.4,323.3,-0.7,1.8,2469.931,13.34,0.101,90.6
2019-11-06T09:09:23,42.805,6.029,0.073,0.022,0.029,99.0,104.0,101.0,13.4,1505.4,327.0,-0.7,1.8,2469.946,13.35,0.076,73.2
2019-11-06T09:12:26,42.805,6.029,0.056,0.0,0.084,104.0,103.0,98.0,13.3,1505.4,325.0,-0.7,1.8,2469.936,13.35,0.056,90.0
2019-11-06T09:15:29,42.805,6.029,0.093,0.004,0.042,99.0,104.0,100.0,13.4,1505.4,325.1,-0.7,1.9,2469.93,13.35,0.093,87.5
2019-11-06T09:18:32,42.805,6.029,0.083,0.016,0.063,100.0,103.0,99.0,13.4,1505.4,324.2,-0.7,1.8,2469.925,13.35,0.084,79.1
2019-11-06T09:21:35,42.805,6.029,0.053,0.012,0.022,101.0,106.0,98.0,13.3,1505.4,323.1,-0.7,1.8,2469.981,13.35,0.054,77.2
2019-11-06T09:24:38,42.805,6.029,0.055,0.017,0.078,98.0,105.0,99.0,13.4,1505.4,324.5,-0.7,1.8,2469.941,13.35,0.057,72.8
2019-11-06T09:27:41,42.805,6.029,0.071,0.018,0.042,99.0,103.0,99.0,13.3,1505.4,324.3,-0.7,1.9,2469.917,13.35,0.073,75.8
2019-11-06T09:30:44,42.805,6.029,0.048,0.013,0.017,102.0,104.0,99.0,13.3,1505.4,326.3,-0.7,1.8,2469.934,13.35,0.049,74.8
2019-11-06T09:33:47,42.805,6.029,0.06,-0.011,0.016,99.0,104.0,99.0,13.4,1505.4,324.6,-0.7,1.8,2469.916,13.35,0.06,100.4
2019-11-06T09:36:50,42.805,6.029,0.059,0.01,0.046,99.0,105.0,99.0,13.3,1505.4,325.7,-0.7,1.8,2469.975,13.35,0.059,80.4
2019-11-06T09:39:53,42.805,6.029,0.045,0.04,0.03,102.0,103.0,97.0,13.4,1505.4,324.0,-0.7,1.9,2469.96,13.35,0.06,48.4
2019-11-06T09:42:56,42.805,6.029,0.045,0.008,0.056,102.0,104.0,99.0,13.4,1505.4,323.8,-0.7,1.8,2469.909,13.35,0.045,79.9
2019-11-06T09:45:59,42.805,6.029,0.038,0.026,0.029,101.0,105.0,98.0,13.4,1505.4,323.5,-0.7,1.8,2469.97,13.34,0.046,55.6
2019-11-06T09:49:02,42.805,6.029,0.02,0.034,0.013,100.0,104.0,99.0,13.3,1505.4,324.4,-0.7,1.9,2469.944,13.34,0.039,30.5
2019-11-06T09:52:05,42.805,6.029,0.0,0.018,-0.008,100.0,104.0,97.0,13.4,1505.4,325.6,-0.7,1.8,2469.992,13.34,0.018,0.0
2019-11-06T09:55:08,42.805,6.029,-0.001,0.02,0.0,101.0,102.0,98.0,13.4,1505.4,326.1,-0.7,1.8,2469.949,13.34,0.02,357.1
2019-11-06T09:58:11,42.805,6.029,0.001,0.007,-0.036,101.0,104.0,98.0,13.4,1505.4,326.6,-0.7,1.8,2469.939,13.35,0.007,8.1
2019-11-06T10:01:14,42.805,6.029,0.018,0.023,0.009,100.0,103.0,98.0,13.4,1505.4,325.4,-0.7,1.9,2469.989,13.35,0.029,38.0
2019-11-06T10:04:17,42.805,6.029,0.07,-0.014,-0.005,100.0,104.0,98.0,13.4,1505.4,328.2,-0.7,1.9,2469.966,13.35,0.071,101.3
2019-11-06T10:07:20,42.805,6.029,0.065,0.028,0.003,101.0,103.0,97.0,13.3,1505.4,327.5,-0.7,1.8,2469.954,13.35,0.07,66.7
2019-11-06T10:10:23,42.805,6.029,0.022,0.002,-0.001,101.0,104.0,98.0,13.3,1505.4,328.1,-0.7,1.8,2469.996,13.34,0.022,84.8
